[[{"header":{"parameterUnit":"m.s-1","parameterCategory":1,"la1":30.2991,"la2":30.254,"lo1":-89.0895,"lo2":-89.0444,"dx":0.0017,"dy":0.0017,"nx":28,"ny":28,"refTime":"2022-12-24T09:00:00:Z","depth":0,"parameterNumber":2,"parameterNumberName":"U-component_of_WINDS"},"data":[0,0,0,0,0,0,0,0,0,0,0,0,0,0,0,0,0,0,0,0,0,0,0,0,0,0,0,0,0,0,0,0,0,0,0,0,0,0,0,0,0,0,0,0,0,0,0,0,0,0,0,0,0,0,0,0,0,0,1.1593,1.1593,0,1.1578,1.1578,1.1578,1.1564,1.1564,1.1564,1.1563,1.1546,1.1546,1.1546,0,0,0,0,0,0,0,0,0,0,0,0,0,1.161,1.161,1.1593,1.1593,1.1593,1.1578,1.1578,1.1578,1.1564,1.1564,1.1564,1.1563,1.1547,1.1546,1.1546,0,0,0,0,0,0,0,0,0,0,0,0,0,1.1599,1.161,1.1593,1.1584,1.1583,1.1578,1.1578,1.1578,1.1564,1.1564,1.1563,1.1563,1.1547,1.1546,1.1546,1.1548,0,0,1.1544,1.1544,0,0,0,0,0,0,0,0,1.16,1.1599,1.1586,1.1585,1.1584,1.1573,1.1578,1.1568,1.1564,1.1571,1.1563,1.1563,1.1555,1.1554,1.1552,1.1547,1.1546,1.1544,1.1544,1.1544,1.1544,0,0,0,0,0,0,0,1.1601,1.1599,1.1587,1.1586,1.1584,1.1581,1.1579,1.1576,1.1565,1.1571,1.157,1.1568,1.1555,1.1552,1.1551,1.1546,1.1544,1.1544,1.1544,1.1544,1.1544,1.1544,0,0,0,0,0,0,1.1603,1.16,1.1588,1.1587,1.1592,1.1581,1.1579,1.1577,1.1565,1.1563,1.1568,1.1567,1.1553,1.1552,1.1551,1.1553,1.1544,1.1544,1.1543,1.1543,1.1544,1.1544,0,0,0,0,0,0,1.1603,1.1602,1.1588,1.1593,1.1591,1.1581,1.1578,1.1576,1.1574,1.1563,1.1561,1.1568,1.1553,1.1551,1.1549,1.1552,1.1543,1.1543,1.1543,1.1543,1.1544,1.1557,0,0,0,0,0,0,1.1604,1.1602,1.1603,1.1593,1.1591,1.1587,1.1578,1.1576,1.1573,1.1572,1.1562,1.156,1.1553,1.155,1.1549,1.1551,1.1543,1.1543,1.1543,1.1544,1.1556,1.1558,1.1559,0,0,0,0,0,1.1605,1.1607,1.1603,1.1602,1.1592,1.1587,1.1586,1.1578,1.1574,1.1574,1.1568,1.156,1.1552,1.155,1.1548,1.1551,1.1542,1.1543,1.1544,1.1556,1.1557,1.1559,0,0,0,0,0,0,1.1616,1.1605,1.1601,1.16,1.1595,1.1585,1.1585,1.158,1.1575,1.1574,1.1564,1.1561,1.156,1.1555,1.1553,1.1553,1.1546,1.1547,1.1556,1.1558,1.1559,1.156,1.1542,0,0,0,0,0,1.1619,1.1617,1.1607,1.1607,1.1605,1.1596,1.1594,1.1588,1.1582,1.1579,1.1572,1.1566,1.1562,1.156,1.1555,1.1556,1.1553,1.1557,1.1558,1.156,1.156,1.156,1.1562,1.1546,1.1546,1.1546,0,0,1.1624,1.1618,1.1617,1.161,1.1605,1.1603,1.1594,1.1592,1.159,1.1579,1.1576,1.1571,1.1564,1.1563,1.1562,1.1559,1.1564,1.156,1.1561,1.1561,1.1561,1.1562,1.1564,1.1546,1.1546,1.1546,0,0,1.1632,1.1627,1.1627,1.1623,1.1616,1.161,1.161,1.1602,1.1598,1.1596,1.1587,1.1585,1.1578,1.1574,1.157,1.1578,1.1572,1.1577,1.1585,1.1585,1.1586,1.1587,1.159,1.1592,1.1578,1.1578,1.1578,0,1.1639,1.1636,1.1628,1.1626,1.1624,1.1614,1.1614,1.161,1.1602,1.16,1.1597,1.1589,1.1583,1.1582,1.1584,1.1582,1.1581,1.1578,1.1587,1.1588,1.1589,1.1592,1.1593,1.1579,1.1578,1.1578,1.1578,0,1.1645,1.1643,1.1644,1.1637,1.1634,1.1633,1.1625,1.1624,1.1619,1.1613,1.1611,1.1604,1.1599,1.1598,1.1593,1.1596,1.1594,1.1589,1.1582,1.1591,1.1594,1.1594,1.158,1.1579,1.1579,1.1579,0,0,1.1659,1.1649,1.1649,1.1646,1.1639,1.1637,1.1636,1.1631,1.163,1.1625,1.1624,1.162,1.1615,1.1612,1.1606,1.1606,1.1613,1.1601,1.1601,1.1603,1.1617,1.1621,1.1622,1.1609,1.161,1.161,1.1618,0,1.1666,1.1664,1.1657,1.1657,1.1655,1.1647,1.1647,1.1642,1.1637,1.1635,1.1629,1.1626,1.162,1.1618,1.1618,1.1612,1.1616,1.1612,1.1608,1.1608,1.161,1.1623,1.1627,1.1635,1.1618,1.1619,1.1619,0,1.1673,1.167,1.167,1.1663,1.1662,1.1661,1.1657,1.1655,1.165,1.1646,1.1643,1.1637,1.1636,1.163,1.1628,1.1626,1.1624,1.1621,1.1621,1.162,1.1614,1.1622,1.1637,1.1638,1.162,1.162,1.162,0,1.1683,1.1679,1.1678,1.1676,1.1668,1.1668,1.1665,1.1659,1.1657,1.1654,1.1652,1.1648,1.1646,1.1643,1.1636,1.1633,1.1635,1.1629,1.1632,1.1633,1.1633,1.1633,1.1647,1.1632,1.1632,1.1632,1.1632,0,1.1691,1.1692,1.1683,1.1683,1.1683,1.1676,1.1676,1.1672,1.1668,1.1666,1.1659,1.1658,1.1649,1.1647,1.1642,1.1641,1.164,1.1638,1.1636,1.1638,1.1638,1.1636,1.1635,1.1632,1.1632,1.1632,1.1632,0,1.1703,1.1697,1.1696,1.1689,1.1687,1.1688,1.1682,1.1681,1.1677,1.1675,1.1675,1.1667,1.1665,1.1658,1.1653,1.165,1.1651,1.1648,1.1653,1.1651,1.1655,1.1655,1.1668,1.167,1.1654,1.1655,1.1655,0,1.1708,1.1708,1.1702,1.1701,1.1698,1.1696,1.1694,1.1688,1.1686,1.1681,1.1681,1.1678,1.1675,1.1671,1.1666,1.1662,1.1659,1.1664,1.1659,1.1661,1.1659,1.1659,1.1659,1.1665,1.1665,1.1666,1.1666,0,1.1718,1.1715,1.1713,1.171,1.1709,1.1706,1.1703,1.1702,1.1695,1.1693,1.1691,1.1689,1.1685,1.1682,1.1678,1.1674,1.1669,1.1668,1.1668,1.167,1.1673,1.1672,1.1656,1.1667,1.1667,1.1667,1.1667,1.1667,1.1726,1.1726,1.1722,1.172,1.1717,1.1715,1.1714,1.171,1.1708,1.1705,1.1701,1.1699,1.1695,1.1689,1.1686,1.1684,1.1681,1.1682,1.1682,1.1683,1.1684,1.1674,1.1684,1.1684,1.1684,1.1683,1.1683,0,1.1736,1.1733,1.1732,1.1728,1.1727,1.1722,1.1719,1.1718,1.1717,1.1713,1.1711,1.1709,1.1706,1.1701,1.1698,1.1698,1.1695,1.1697,1.1697,1.1696,1.1686,1.1686,1.1699,1.1699,1.1699,1.1699,1.1699,1.1699,1.1741,1.1741,1.1738,1.1737,1.1734,1.1733,1.1731,1.1729,1.1726,1.1724,1.1722,1.1719,1.1715,1.1712,1.171,1.1708,1.1707,1.171,1.1708,1.1698,1.1697,1.1695,1.1695,1.171,1.171,1.1718,1.1718,1.1718]},{"header":{"parameterUnit":"m.s-1","parameterCategory":1,"la1":30.2991,"la2":30.254,"lo1":-89.0895,"lo2":-89.0444,"dx":0.0017,"dy":0.0017,"nx":28,"ny":28,"refTime":"2022-12-24T09:00:00:Z","depth":0,"parameterNumber":3,"parameterNumberName":"V-component_of_WINDS"},"data":[0,0,0,0,0,0,0,0,0,0,0,0,0,0,0,0,0,0,0,0,0,0,0,0,0,0,0,0,0,0,0,0,0,0,0,0,0,0,0,0,0,0,0,0,0,0,0,0,0,0,0,0,0,0,0,0,0,0,-4.707,-4.707,0,-4.7148,-4.7148,-4.7149,-4.7136,-4.7135,-4.7134,-4.7133,-4.7208,-4.7211,-4.7214,0,0,0,0,0,0,0,0,0,0,0,0,0,-4.6906,-4.6909,-4.7069,-4.707,-4.7071,-4.7147,-4.7149,-4.715,-4.7137,-4.7135,-4.7133,-4.7132,-4.7207,-4.721,-4.7214,0,0,0,0,0,0,0,0,0,0,0,0,0,-4.6979,-4.691,-4.7069,-4.7074,-4.7076,-4.7147,-4.7149,-4.715,-4.7137,-4.7135,-4.7133,-4.7131,-4.7205,-4.721,-4.7215,-4.7285,0,0,-4.723,-4.7232,0,0,0,0,0,0,0,0,-4.6975,-4.6985,-4.7073,-4.7074,-4.7076,-4.713,-4.7118,-4.7195,-4.7138,-4.7114,-4.7132,-4.713,-4.7183,-4.719,-4.7209,-4.7289,-4.7292,-4.723,-4.7233,-4.7235,-4.7237,0,0,0,0,0,0,0,-4.697,-4.6982,-4.71,-4.7074,-4.7076,-4.7071,-4.708,-4.7133,-4.7158,-4.7115,-4.7115,-4.7124,-4.7184,-4.7204,-4.721,-4.7293,-4.723,-4.7234,-4.7237,-4.7239,-4.7435,-4.7438,0,0,0,0,0,0,-4.6964,-4.6978,-4.7098,-4.7103,-4.702,-4.7076,-4.7085,-4.7115,-4.7158,-4.7163,-4.7126,-4.7124,-4.7197,-4.7205,-4.7213,-4.7299,-4.7235,-4.724,-4.7243,-4.7433,-4.7436,-4.7438,0,0,0,0,0,0,-4.6961,-4.6975,-4.7095,-4.704,-4.7055,-4.7081,-4.7114,-4.7117,-4.7138,-4.7166,-4.717,-4.7142,-4.7195,-4.7206,-4.7268,-4.7301,-4.7242,-4.7246,-4.743,-4.7434,-4.7437,-4.7471,0,0,0,0,0,0,-4.6956,-4.6974,-4.7002,-4.7041,-4.7058,-4.7149,-4.7116,-4.712,-4.7147,-4.7144,-4.7182,-4.7187,-4.7195,-4.7261,-4.7273,-4.7307,-4.725,-4.7428,-4.7432,-4.7436,-4.7467,-4.7475,-4.7482,0,0,0,0,0,-4.695,-4.7007,-4.7003,-4.7018,-4.7093,-4.7151,-4.7161,-4.717,-4.715,-4.7177,-4.7196,-4.7186,-4.7296,-4.7267,-4.7281,-4.7317,-4.7426,-4.7431,-4.7436,-4.7464,-4.7474,-4.7482,0,0,0,0,0,0,-4.6968,-4.7012,-4.7008,-4.7079,-4.7112,-4.7149,-4.7184,-4.718,-4.7218,-4.7214,-4.7222,-4.7231,-4.7294,-4.7311,-4.7279,-4.7388,-4.7358,-4.7366,-4.7374,-4.7384,-4.7391,-4.7386,-4.7254,0,0,0,0,0,-4.6981,-4.7026,-4.7061,-4.712,-4.7137,-4.7158,-4.7183,-4.7188,-4.7221,-4.7235,-4.7257,-4.7289,-4.7331,-4.7358,-4.7398,-4.747,-4.7478,-4.7501,-4.7509,-4.7515,-4.7522,-4.7562,-4.7573,-4.7455,-4.7455,-4.7455,0,0,-4.7007,-4.7036,-4.7063,-4.7124,-4.715,-4.7196,-4.7169,-4.7218,-4.7252,-4.7241,-4.7302,-4.732,-4.7356,-4.7423,-4.7454,-4.7439,-4.7556,-4.7521,-4.7526,-4.753,-4.7568,-4.7579,-4.7589,-4.7459,-4.7458,-4.7458,0,0,-4.7077,-4.7104,-4.7157,-4.7184,-4.7225,-4.7239,-4.7251,-4.729,-4.7302,-4.7363,-4.7357,-4.7396,-4.7468,-4.7494,-4.7517,-4.7599,-4.7592,-4.7612,-4.7651,-4.769,-4.7699,-4.7708,-4.7738,-4.7748,-4.7618,-4.7619,-4.7619,0,-4.7104,-4.7174,-4.7184,-4.7235,-4.7262,-4.7257,-4.731,-4.7335,-4.7386,-4.7404,-4.7388,-4.7479,-4.7503,-4.7577,-4.7597,-4.7615,-4.763,-4.7607,-4.7698,-4.7706,-4.7714,-4.7742,-4.7754,-4.7621,-4.7621,-4.762,-4.762,0,-4.7205,-4.7253,-4.7291,-4.7343,-4.7374,-4.7425,-4.7443,-4.7473,-4.7475,-4.749,-4.7553,-4.7582,-4.7628,-4.7646,-4.7647,-4.772,-4.771,-4.7696,-4.7666,-4.7727,-4.7754,-4.7765,-4.7624,-4.7623,-4.7623,-4.7622,0,0,-4.7288,-4.7347,-4.736,-4.7384,-4.7429,-4.7466,-4.7517,-4.7565,-4.7591,-4.7626,-4.7669,-4.773,-4.7718,-4.7744,-4.7748,-4.7782,-4.7847,-4.7764,-4.7764,-4.7779,-4.793,-4.7941,-4.7954,-4.7842,-4.7844,-4.7846,-4.7927,0,-4.7363,-4.7456,-4.7468,-4.755,-4.7595,-4.7591,-4.7636,-4.7668,-4.7684,-4.7723,-4.774,-4.7784,-4.7764,-4.778,-4.7813,-4.7832,-4.7877,-4.7826,-4.7882,-4.7884,-4.7874,-4.7968,-4.798,-4.8055,-4.7938,-4.7939,-4.7941,0,-4.7464,-4.7504,-4.7591,-4.7632,-4.7651,-4.7691,-4.7736,-4.7774,-4.781,-4.7819,-4.785,-4.785,-4.7902,-4.787,-4.7942,-4.7907,-4.7931,-4.7943,-4.7946,-4.7952,-4.7916,-4.7977,-4.8079,-4.809,-4.7957,-4.7956,-4.7955,0,-4.7517,-4.7593,-4.7656,-4.7676,-4.7724,-4.7753,-4.7774,-4.7808,-4.7836,-4.7875,-4.7893,-4.7937,-4.7961,-4.7994,-4.8006,-4.7982,-4.8078,-4.8046,-4.8086,-4.8086,-4.8107,-4.8106,-4.8215,-4.8121,-4.8121,-4.8121,-4.8121,0,-4.76,-4.7654,-4.768,-4.7719,-4.7779,-4.7791,-4.785,-4.7869,-4.79,-4.7942,-4.794,-4.7979,-4.7992,-4.8033,-4.8043,-4.8101,-4.8112,-4.812,-4.8122,-4.8121,-4.812,-4.8136,-4.8132,-4.8124,-4.8123,-4.8123,-4.8122,0,-4.767,-4.769,-4.7758,-4.7799,-4.781,-4.7853,-4.7887,-4.7924,-4.794,-4.7992,-4.8005,-4.803,-4.8078,-4.8094,-4.815,-4.8157,-4.8226,-4.8223,-4.8214,-4.8215,-4.8254,-4.8251,-4.8378,-4.8396,-4.829,-4.8291,-4.8292,0,-4.7722,-4.7763,-4.781,-4.7839,-4.7861,-4.7907,-4.7937,-4.7951,-4.7981,-4.8026,-4.8058,-4.8106,-4.8145,-4.8222,-4.8244,-4.8288,-4.8286,-4.8328,-4.8292,-4.829,-4.8288,-4.8285,-4.829,-4.8334,-4.8336,-4.8336,-4.8337,0,-4.7812,-4.7821,-4.7864,-4.7912,-4.7948,-4.7986,-4.8022,-4.8045,-4.8064,-4.8098,-4.8149,-4.8179,-4.8239,-4.8287,-4.8332,-4.8352,-4.8348,-4.8348,-4.836,-4.8359,-4.8353,-4.8358,-4.8233,-4.8345,-4.8344,-4.8344,-4.8343,-4.8343,-4.7875,-4.7913,-4.7952,-4.8001,-4.803,-4.8064,-4.8102,-4.8123,-4.8166,-4.8217,-4.8222,-4.8277,-4.8312,-4.8373,-4.8396,-4.8437,-4.8425,-4.8442,-4.8446,-4.845,-4.8454,-4.8346,-4.8445,-4.8445,-4.8445,-4.8445,-4.8445,0,-4.7967,-4.7992,-4.8037,-4.8089,-4.8128,-4.8123,-4.8163,-4.8195,-4.8243,-4.8278,-4.8317,-4.8375,-4.8422,-4.8449,-4.8495,-4.8523,-4.8523,-4.8535,-4.8533,-4.8538,-4.8462,-4.8448,-4.8535,-4.8535,-4.8535,-4.8535,-4.8535,-4.8535,-4.8019,-4.8083,-4.8096,-4.8174,-4.8198,-4.8253,-4.8277,-4.8308,-4.8336,-4.8402,-4.8441,-4.8459,-4.849,-4.8539,-4.8582,-4.8588,-4.8606,-4.8619,-4.8625,-4.8553,-4.8543,-4.8535,-4.8521,-4.8623,-4.8623,-4.8698,-4.8699,-4.8699]}]]